KU5D-13 Weather Reports


time (UTC)temp
C
wind
direction
speed
KPH
gust
KPH
rain 1hr
cm
rain 24hr
cm
rain mn
cm
humidity
%
barometer
mb
20260506215005 9 0 4.8 8.0 0.00 0.00 0.00 27 1038.3
20260506212004 9 0 4.8 8.0 0.00 0.00 0.00 27 1038.3
20260506210004 9 0 4.8 8.0 0.00 0.00 0.00 27 1038.3
20260506205004 9 0 4.8 8.0 0.00 0.00 0.00 27 1038.3
20260506204003 9 0 4.8 8.0 0.00 0.00 0.00 27 1038.3
20260506203004 9 0 4.8 8.0 0.00 0.00 0.00 27 1038.3
20260506202004 9 0 4.8 8.0 0.00 0.00 0.00 27 1038.3
20260506200004 9 0 4.8 8.0 0.00 0.00 0.00 27 1038.3
20260506195003 9 0 4.8 8.0 0.00 0.00 0.00 27 1038.3
20260506194004 9 0 4.8 8.0 0.00 0.00 0.00 27 1038.3
20260506193004 9 0 4.8 8.0 0.00 0.00 0.00 27 1038.3
20260506192004 9 0 4.8 8.0 0.00 0.00 0.00 27 1038.3
20260506191004 9 0 4.8 8.0 0.00 0.00 0.00 27 1038.3
20260506190005 9 0 4.8 8.0 0.00 0.00 0.00 27 1038.3
20260506185003 9 0 4.8 8.0 0.00 0.00 0.00 27 1038.3
20260506184003 9 0 4.8 8.0 0.00 0.00 0.00 27 1038.3
20260506183004 9 0 4.8 8.0 0.00 0.00 0.00 27 1038.3
20260506182004 9 0 4.8 8.0 0.00 0.00 0.00 27 1038.3
20260506181004 9 0 4.8 8.0 0.00 0.00 0.00 27 1038.3
20260506180005 9 0 4.8 8.0 0.00 0.00 0.00 27 1038.3
20260506175013 9 0 4.8 8.0 0.00 0.00 0.00 27 1038.3
20260506173004 9 0 4.8 8.0 0.00 0.00 0.00 27 1038.3
20260506172004 9 0 4.8 8.0 0.00 0.00 0.00 27 1038.3
20260506170005 9 0 4.8 8.0 0.00 0.00 0.00 27 1038.3
20260506164004 9 0 4.8 8.0 0.00 0.00 0.00 27 1038.3
20260506163004 9 0 4.8 8.0 0.00 0.00 0.00 27 1038.3
20260506162004 9 0 4.8 8.0 0.00 0.00 0.00 27 1038.3
20260506161005 9 0 4.8 8.0 0.00 0.00 0.00 27 1038.3
20260506150017 7 14 16.1 19.3 0.00 0.51 0.51 22 989.3
20260506145017 7 15 16.1 19.3 0.00 0.51 0.51 23 989.6
20260506144017 8 17 16.1 17.7 0.00 0.51 0.51 23 989.9
20260506143017 8 19 14.5 17.7 0.00 0.51 0.51 23 990.2
20260506142017 8 20 14.5 17.7 0.00 0.51 0.51 23 990.5
20260506141017 9 22 14.5 17.7 0.00 0.51 0.51 24 990.9
20260506140017 10 24 14.5 17.7 0.00 0.51 0.51 24 991.2
20260506135017 10 26 14.5 17.7 0.00 0.51 0.51 24 991.6
20260506134017 11 28 14.5 17.7 0.00 0.51 0.51 25 992.0
20260506133037 11 30 14.5 17.7 0.00 0.51 0.51 25 992.4
20260506132037 11 33 14.5 17.7 0.00 0.51 0.51 25 992.8
20260506131017 12 35 14.5 17.7 0.00 0.51 0.51 26 993.3
20260506130017 12 37 14.5 17.7 0.00 0.51 0.51 26 993.7
20260506125017 13 40 14.5 17.7 0.00 0.51 0.51 27 994.2
20260506124037 13 42 14.5 17.7 0.00 0.51 0.51 27 994.6
20260506123017 14 45 14.5 17.7 0.00 0.51 0.51 27 995.1
20260506122037 14 47 14.5 16.1 0.00 0.51 0.51 28 995.6
20260506121017 15 50 14.5 16.1 0.00 0.51 0.51 28 996.1
20260506120017 15 53 14.5 16.1 0.00 0.51 0.51 29 996.6
20260506115016 16 55 12.9 16.1 0.00 0.51 0.51 29 997.1
20260506114017 16 58 12.9 16.1 0.00 0.51 0.51 30 997.7
20260506113037 16 61 12.9 16.1 0.00 0.51 0.51 30 998.2
20260506112017 17 64 12.9 16.1 0.00 0.51 0.51 31 998.8
20260506111017 17 67 12.9 16.1 0.00 0.51 0.51 31 999.4
20260506110017 17 70 12.9 16.1 0.00 0.51 0.51 32 1000.0
20260506105017 18 73 12.9 16.1 0.00 0.51 0.51 32 1000.5
20260506104017 18 77 12.9 14.5 0.00 0.51 0.51 33 1001.1
20260506103017 18 80 12.9 14.5 0.00 0.51 0.51 33 1001.8
20260506102017 18 83 12.9 14.5 0.00 0.51 0.51 34 1002.4
20260506101017 19 87 12.9 14.5 0.00 0.51 0.51 34 1003.0
20260506100037 19 90 12.9 14.5 0.00 0.51 0.51 35 1003.6
20260506095037 20 93 11.3 14.5 0.00 0.51 0.51 36 1004.3
20260506094017 20 97 11.3 14.5 0.00 0.51 0.51 36 1004.9
20260506093016 20 100 11.3 14.5 0.00 0.51 0.51 37 1005.6
20260506092016 20 104 11.3 14.5 0.00 0.51 0.51 37 1006.3
20260506091017 20 107 11.3 12.9 0.00 0.51 0.51 38 1006.9
20260506090017 20 111 11.3 12.9 0.00 0.51 0.51 39 1007.6
20260506085017 21 115 11.3 12.9 0.03 0.51 0.51 39 1008.3
20260506084017 21 118 11.3 12.9 0.05 0.51 0.51 40 1009.0
20260506083037 21 122 11.3 12.9 0.08 0.51 0.51 40 1009.7
20260506082037 21 126 11.3 12.9 0.10 0.51 0.51 41 1010.4
20260506081017 21 130 9.7 12.9 0.13 0.51 0.51 42 1011.1
20260506073017 21 145 9.7 11.3 0.18 0.43 0.43 44 1014.0
20260506072037 21 149 9.7 11.3 0.18 0.41 0.41 45 1014.7
20260506071017 21 153 9.7 11.3 0.18 0.38 0.38 45 1015.4
20260506062017 20 172 8.0 9.7 0.15 0.23 0.23 49 1019.1
20260506061038 20 176 8.0 9.7 0.15 0.20 0.20 49 1019.8
20260506051017 18 200 6.4 8.0 0.05 0.05 0.05 53 1024.3
20260506045017 17 207 6.4 8.0 0.00 0.00 0.00 55 1025.7
20260506044017 17 211 6.4 8.0 0.00 0.00 0.00 55 1026.5
20260506043017 16 215 6.4 8.0 0.00 0.00 0.00 56 1027.2
20260506042017 16 219 6.4 8.0 0.00 0.00 0.00 56 1027.9
20260506041017 16 223 6.4 8.0 0.00 0.00 0.00 57 1028.6
20260506040017 15 227 6.4 6.4 0.00 0.00 0.00 58 1029.4
20260506035037 15 230 6.4 6.4 0.00 0.00 0.00 58 1030.1
20260506034017 14 234 4.8 6.4 0.00 0.00 0.00 59 1030.8
20260506033016 14 238 4.8 6.4 0.00 0.00 0.00 60 1031.5
20260506032016 13 241 4.8 6.4 0.00 0.00 0.00 60 1032.2
20260506031016 13 245 4.8 6.4 0.00 0.00 0.00 61 1032.9
20260506030017 12 249 4.8 6.4 0.00 0.00 0.00 61 1033.6
20260506025017 12 252 4.8 6.4 0.00 0.00 0.00 62 1034.2
20260506024017 11 256 4.8 4.8 0.00 0.00 0.00 63 1034.9
20260506023017 11 260 4.8 4.8 0.00 0.00 0.00 63 1035.6
20260506022017 11 263 4.8 4.8 0.00 0.00 0.00 64 1036.2
20260506021017 10 267 4.8 4.8 0.00 0.00 0.00 64 1036.9
20260506020037 10 270 4.8 4.8 0.00 0.00 0.00 65 1037.5
20260506015018 9 273 3.2 4.8 0.00 0.00 0.00 66 1038.2
20260506014017 8 277 3.2 4.8 0.00 0.00 0.00 66 1038.8
20260506013016 8 280 3.2 4.8 0.00 0.00 0.00 67 1039.4
20260506012037 8 283 3.2 4.8 0.00 0.00 0.00 67 1040.0
20260506011037 7 286 3.2 3.2 0.00 0.00 0.00 68 1040.6
20260506010017 7 290 3.2 3.2 0.00 0.00 0.00 68 1041.2
20260506005017 6 293 3.2 3.2 0.00 0.00 0.00 69 1041.8
20260506003017 5 299 3.2 3.2 0.00 0.00 0.00 70 1042.9
20260506002016 5 302 3.2 3.2 0.00 0.00 0.00 70 1043.5
20260506001017 5 304 3.2 3.2 0.00 0.00 0.00 71 1044.0
20260506000017 4 307 1.6 3.2 0.00 0.00 0.00 71 1044.6
20260505235017 3 310 1.6 3.2 0.00 0.00 0.00 72 1045.1
20260505234017 3 313 1.6 3.2 0.00 0.00 0.00 72 1045.6
20260505233017 3 315 1.6 3.2 0.00 0.00 0.00 73 1046.1
20260505232017 2 318 1.6 1.6 0.00 0.00 0.00 73 1046.6
20260505231038 2 320 1.6 1.6 0.00 0.00 0.00 73 1047.0
20260505230017 2 323 1.6 1.6 0.00 0.00 0.00 74 1047.5
20260505225752 1 325 1.6 1.6 0.00 0.00 0.00 74 1047.9